This is the latest recevied weather packets stored in our database for station/object HB9TJM-8. If no packets are shown the sender has not sent any weather packets the latest 10 day(s).
| Time | Temp. | Humidity | Pressure | Rain* | Wind** | Luminosity | Snow |
|---|---|---|---|---|---|---|---|
| 1777679630 | 13.33° C | 60% | 1024.4 hPa | 0 mm | - | 0 W/m² | - |
| 1777679322 | 13.33° C | 60% | 1024.1 hPa | 0 mm | - | 0 W/m² | - |
| 1777679016 | 13.33° C | 58% | 1024.1 hPa | 0 mm | - | 0 W/m² | - |
| 1777678708 | 13.89° C | 52% | 1024.1 hPa | 0 mm | - | 0 W/m² | - |
| 1777678401 | 13.89° C | 52% | 1024.7 hPa | 0 mm | - | 0 W/m² | - |
| 1777678093 | 13.89° C | 52% | 1024.5 hPa | 0 mm | - | 0 W/m² | - |
| 1777677785 | 13.89° C | 52% | 1024.1 hPa | 0 mm | - | 0 W/m² | - |
| 1777677478 | 13.89° C | 52% | 1024 hPa | 0 mm | - | 0 W/m² | - |
| 1777677170 | 13.89° C | 52% | 1024.3 hPa | 0 mm | - | 0 W/m² | - |
| 1777676862 | 13.89° C | 50% | 1024.5 hPa | 0 mm | - | 0 W/m² | - |
| 1777676555 | 14.44° C | 51% | 1024.3 hPa | 0 mm | - | 0 W/m² | - |
| 1777676248 | 14.44° C | 50% | 1024.3 hPa | 0 mm | - | 0 W/m² | - |
| 1777675941 | 13.89° C | 51% | 1024.2 hPa | 0 mm | - | 0 W/m² | - |
| 1777675633 | 13.33° C | 53% | 1024.5 hPa | 0 mm | - | 0 W/m² | - |
| 1777675325 | 13.89° C | 53% | 1024 hPa | 0 mm | - | 0 W/m² | - |
| 1777675018 | 13.89° C | 52% | 1024.1 hPa | 0 mm | - | 0 W/m² | - |
| 1777674711 | 13.89° C | 51% | 1024.5 hPa | 0 mm | - | 0 W/m² | - |
| 1777674404 | 13.89° C | 52% | 1024.5 hPa | 0 mm | - | 0 W/m² | - |
| 1777674096 | 13.89° C | 51% | 1024 hPa | 0 mm | - | 0 W/m² | - |
| 1777673788 | 13.89° C | 50% | 1024.6 hPa | 0 mm | - | 0 W/m² | - |
| 1777673481 | 13.89° C | 52% | 1024 hPa | 0 mm | - | 0 W/m² | - |
| 1777673173 | 13.33° C | 51% | 1024.2 hPa | 0 mm | - | 0 W/m² | - |
| 1777672865 | 13.89° C | 52% | 1024.1 hPa | 0 mm | - | 0 W/m² | - |
| 1777672558 | 13.89° C | 52% | 1024.1 hPa | 0 mm | - | 0 W/m² | - |
| 1777672251 | 13.89° C | 50% | 1024.3 hPa | 0 mm | - | 0 W/m² | - |
* Rain latest hour (hover to see other rain measurements)
** Current wind speed in m/s (hover to see current wind gust speed)